Time,TemperatureF,DewpointF,PressureIn,WindDirection,WindDirectionDegrees,WindSpeedMPH,WindSpeedGustMPH,Humidity,HourlyPrecipIn,Conditions,Clouds,dailyrainin,SoftwareType,DateUTC
2013-04-07 00:21:00,33.0,26.0,30.32,North,-999,-999.0,-999.0,75,-99.99,,,0.00,weatherlink.com 1.10,2013-04-07 04:21:00,
2013-04-07 00:36:00,32.6,26.0,30.32,North,-999,-999.0,-999.0,75,-99.99,,,0.00,weatherlink.com 1.10,2013-04-07 04:36:00,
2013-04-07 00:51:00,32.2,25.0,30.32,North,-999,-999.0,-999.0,76,-99.99,,,0.00,weatherlink.com 1.10,2013-04-07 04:51:00,
2013-04-07 01:06:00,32.3,26.0,30.32,North,-999,-999.0,-999.0,77,-99.99,,,0.00,weatherlink.com 1.10,2013-04-07 05:06:00,
2013-04-07 01:21:00,32.1,26.0,30.32,North,-999,-999.0,-999.0,77,-99.99,,,0.00,weatherlink.com 1.10,2013-04-07 05:21:00,
2013-04-07 01:36:00,32.0,26.0,30.31,North,-999,-999.0,-999.0,79,-99.99,,,0.00,weatherlink.com 1.10,2013-04-07 05:36:00,
2013-04-07 01:51:00,32.0,27.0,30.30,North,-999,-999.0,-999.0,80,-99.99,,,0.00,weatherlink.com 1.10,2013-04-07 05:51:00,
2013-04-07 04:53:00,28.6,25.0,30.27,North,-999,-999.0,-999.0,86,-99.99,,,0.00,weatherlink.com 1.10,2013-04-07 08:53:00,
2013-04-07 05:08:00,28.8,25.0,30.28,North,-999,-999.0,-999.0,87,-99.99,,,0.00,weatherlink.com 1.10,2013-04-07 09:08:00,
2013-04-07 05:23:00,28.8,25.0,30.28,North,-999,-999.0,-999.0,87,-99.99,,,0.00,weatherlink.com 1.10,2013-04-07 09:23:00,
2013-04-07 05:38:00,28.5,25.0,30.29,North,-999,-999.0,-999.0,87,-99.99,,,0.00,weatherlink.com 1.10,2013-04-07 09:38:00,
2013-04-07 05:53:00,28.4,25.0,30.29,North,-999,-999.0,-999.0,87,-99.99,,,0.00,weatherlink.com 1.10,2013-04-07 09:53:00,
2013-04-07 06:39:00,29.4,26.0,30.30,North,-999,-999.0,-999.0,88,-99.99,,,0.00,weatherlink.com 1.10,2013-04-07 10:39:00,
2013-04-07 06:54:00,29.0,26.0,30.30,North,-999,-999.0,-999.0,88,-99.99,,,0.00,weatherlink.com 1.10,2013-04-07 10:54:00,
2013-04-07 07:09:00,29.7,27.0,30.30,North,-999,-999.0,-999.0,89,-99.99,,,0.00,weatherlink.com 1.10,2013-04-07 11:09:00,
2013-04-07 07:39:00,34.1,32.0,30.31,North,-999,-999.0,-999.0,90,-99.99,,,0.00,weatherlink.com 1.10,2013-04-07 11:39:00,
2013-04-07 09:09:00,44.3,34.0,30.30,North,-999,-999.0,-999.0,66,-99.99,,,0.00,weatherlink.com 1.10,2013-04-07 13:09:00,
2013-04-07 09:24:00,45.9,34.0,30.30,North,-999,-999.0,-999.0,64,-99.99,,,0.00,weatherlink.com 1.10,2013-04-07 13:24:00,
2013-04-07 09:39:00,46.4,31.0,30.29,North,-999,-999.0,-999.0,55,-99.99,,,0.00,weatherlink.com 1.10,2013-04-07 13:39:00,
2013-04-07 09:54:00,47.3,32.0,30.29,North,-999,-999.0,-999.0,56,-99.99,,,0.00,weatherlink.com 1.10,2013-04-07 13:54:00,
2013-04-07 10:09:00,47.2,28.0,30.29,North,-999,-999.0,-999.0,48,-99.99,,,0.00,weatherlink.com 1.10,2013-04-07 14:09:00,
2013-04-07 10:24:00,47.9,28.0,30.29,North,-999,-999.0,-999.0,47,-99.99,,,0.00,weatherlink.com 1.10,2013-04-07 14:24:00,
2013-04-07 10:39:00,48.4,30.0,30.28,North,-999,-999.0,-999.0,50,-99.99,,,0.00,weatherlink.com 1.10,2013-04-07 14:39:00,
2013-04-07 10:54:00,48.5,30.0,30.28,South,189,3.0,-999.0,50,-99.99,,,0.00,weatherlink.com 1.10,2013-04-07 14:54:00,
2013-04-07 11:09:00,48.7,27.0,30.27,South,175,6.0,-999.0,44,-99.99,,,0.00,weatherlink.com 1.10,2013-04-07 15:09:00,
2013-04-07 11:24:00,49.4,30.0,30.26,WNW,285,3.0,-999.0,47,-99.99,,,0.00,weatherlink.com 1.10,2013-04-07 15:24:00,
2013-04-07 11:39:00,50.8,26.0,30.26,SW,214,7.0,-999.0,39,-99.99,,,0.00,weatherlink.com 1.10,2013-04-07 15:39:00,
2013-04-07 11:54:00,51.2,23.0,30.24,WSW,244,15.0,-999.0,33,-99.99,,,0.00,weatherlink.com 1.10,2013-04-07 15:54:00,
2013-04-07 12:09:00,52.4,21.0,30.23,SSW,197,6.0,-999.0,29,-99.99,,,0.00,weatherlink.com 1.10,2013-04-07 16:09:00,
2013-04-07 12:24:00,53.4,23.0,30.22,West,265,12.0,-999.0,31,-99.99,,,0.00,weatherlink.com 1.10,2013-04-07 16:24:00,
2013-04-07 12:39:00,53.4,27.0,30.21,NW,309,5.0,-999.0,36,-99.99,,,0.00,weatherlink.com 1.10,2013-04-07 16:39:00,
2013-04-07 12:54:00,53.4,29.0,30.21,SW,224,12.0,-999.0,40,-99.99,,,0.00,weatherlink.com 1.10,2013-04-07 16:54:00,
2013-04-07 13:25:00,51.3,31.0,30.19,SSW,196,14.0,-999.0,46,-99.99,,,0.00,weatherlink.com 1.10,2013-04-07 17:25:00,
2013-04-07 13:40:00,52.3,32.0,30.18,SSW,197,10.0,-999.0,47,-99.99,,,0.00,weatherlink.com 1.10,2013-04-07 17:40:00,
2013-04-07 13:55:00,52.7,34.0,30.18,SSE,155,7.0,-999.0,49,-99.99,,,0.00,weatherlink.com 1.10,2013-04-07 17:55:00,
2013-04-07 14:10:00,51.9,35.0,30.17,SSW,199,9.0,-999.0,52,-99.99,,,0.00,weatherlink.com 1.10,2013-04-07 18:10:00,
2013-04-07 14:25:00,50.8,34.0,30.17,WSW,238,2.0,-999.0,54,-99.99,,,0.00,weatherlink.com 1.10,2013-04-07 18:25:00,
2013-04-07 14:40:00,50.3,34.0,30.15,SSW,199,17.0,-999.0,53,-99.99,,,0.00,weatherlink.com 1.10,2013-04-07 18:40:00,
2013-04-07 14:55:00,50.6,34.0,30.15,South,186,17.0,-999.0,54,-99.99,,,0.00,weatherlink.com 1.10,2013-04-07 18:55:00,
2013-04-07 15:10:00,50.3,35.0,30.15,SSW,205,20.0,-999.0,56,-99.99,,,0.00,weatherlink.com 1.10,2013-04-07 19:10:00,
2013-04-07 15:25:00,50.9,35.0,30.14,SW,226,14.0,-999.0,56,-99.99,,,0.00,weatherlink.com 1.10,2013-04-07 19:25:00,
2013-04-07 15:40:00,50.6,36.0,30.14,SSW,200,9.0,-999.0,58,-99.99,,,0.00,weatherlink.com 1.10,2013-04-07 19:40:00,
2013-04-07 15:55:00,50.7,36.0,30.12,WSW,257,15.0,-999.0,58,-99.99,,,0.00,weatherlink.com 1.10,2013-04-07 19:55:00,
2013-04-07 16:10:00,49.9,37.0,30.12,SW,224,17.0,-999.0,61,-99.99,,,0.00,weatherlink.com 1.10,2013-04-07 20:10:00,
2013-04-07 16:25:00,49.4,36.0,30.11,WSW,242,11.0,-999.0,61,-99.99,,,0.00,weatherlink.com 1.10,2013-04-07 20:25:00,
2013-04-07 16:40:00,50.0,37.0,30.11,WSW,240,2.0,-999.0,62,-99.99,,,0.00,weatherlink.com 1.10,2013-04-07 20:40:00,
2013-04-07 16:55:00,49.8,38.0,30.10,SSW,192,20.0,-999.0,63,-99.99,,,0.00,weatherlink.com 1.10,2013-04-07 20:55:00,
2013-04-07 17:10:00,49.2,37.0,30.10,SW,236,10.0,-999.0,63,-99.99,,,0.00,weatherlink.com 1.10,2013-04-07 21:10:00,
2013-04-07 17:25:00,48.8,37.0,30.10,SSE,152,8.0,-999.0,65,-99.99,,,0.00,weatherlink.com 1.10,2013-04-07 21:25:00,
2013-04-07 17:40:00,48.6,37.0,30.09,South,188,4.0,-999.0,65,-99.99,,,0.00,weatherlink.com 1.10,2013-04-07 21:40:00,
2013-04-07 17:55:00,48.6,37.0,30.07,SSW,193,22.0,-999.0,65,-99.99,,,0.00,weatherlink.com 1.10,2013-04-07 21:55:00,
2013-04-07 18:10:00,48.2,37.0,30.05,SSW,195,5.0,-999.0,66,-99.99,,,0.00,weatherlink.com 1.10,2013-04-07 22:10:00,
2013-04-07 18:25:00,48.1,38.0,30.05,South,170,9.0,-999.0,67,-99.99,,,0.00,weatherlink.com 1.10,2013-04-07 22:25:00,
2013-04-07 18:40:00,47.8,38.0,30.06,SSW,204,10.0,-999.0,68,-99.99,,,0.00,weatherlink.com 1.10,2013-04-07 22:40:00,
2013-04-07 18:55:00,47.4,38.0,30.05,North,-999,-999.0,-999.0,69,-99.99,,,0.00,weatherlink.com 1.10,2013-04-07 22:55:00,
2013-04-07 19:10:00,47.2,38.0,30.05,North,-999,-999.0,-999.0,71,-99.99,,,0.00,weatherlink.com 1.10,2013-04-07 23:10:00,
2013-04-07 19:25:00,47.1,38.0,30.07,North,-999,-999.0,-999.0,72,-99.99,,,0.00,weatherlink.com 1.10,2013-04-07 23:25:00,
2013-04-07 19:40:00,46.9,39.0,30.07,North,-999,-999.0,-999.0,74,-99.99,,,0.00,weatherlink.com 1.10,2013-04-07 23:40:00,
2013-04-07 19:55:00,46.6,39.0,30.06,North,-999,-999.0,-999.0,76,-99.99,,,0.00,weatherlink.com 1.10,2013-04-07 23:55:00,
2013-04-07 20:10:00,46.3,40.0,30.06,North,-999,-999.0,-999.0,78,-99.99,,,0.00,weatherlink.com 1.10,2013-04-08 00:10:00,
2013-04-07 20:25:00,46.3,40.0,30.06,North,-999,-999.0,-999.0,78,-99.99,,,0.00,weatherlink.com 1.10,2013-04-08 00:25:00,
2013-04-07 20:41:00,46.3,40.0,30.07,North,-999,-999.0,-999.0,79,-99.99,,,0.00,weatherlink.com 1.10,2013-04-08 00:41:00,
2013-04-07 20:56:00,46.3,40.0,30.07,North,-999,-999.0,-999.0,80,-99.99,,,0.00,weatherlink.com 1.10,2013-04-08 00:56:00,
2013-04-07 21:26:00,46.2,41.0,30.07,North,-999,-999.0,-999.0,81,-99.99,,,0.00,weatherlink.com 1.10,2013-04-08 01:26:00,
2013-04-07 21:41:00,46.3,41.0,30.06,North,-999,-999.0,-999.0,81,-99.99,,,0.00,weatherlink.com 1.10,2013-04-08 01:41:00,
2013-04-07 22:11:00,46.2,41.0,30.05,North,-999,-999.0,-999.0,82,-99.99,,,0.00,weatherlink.com 1.10,2013-04-08 02:11:00,
2013-04-07 22:26:00,46.2,41.0,30.05,North,-999,-999.0,-999.0,82,-99.99,,,0.00,weatherlink.com 1.10,2013-04-08 02:26:00,
2013-04-07 22:56:00,46.0,41.0,30.03,North,-999,-999.0,-999.0,83,-99.99,,,0.00,weatherlink.com 1.10,2013-04-08 02:56:00,
2013-04-07 23:11:00,46.0,41.0,30.03,North,-999,-999.0,-999.0,84,-99.99,,,0.00,weatherlink.com 1.10,2013-04-08 03:11:00,
2013-04-07 23:26:00,46.0,43.0,30.03,North,-999,-999.0,-999.0,88,-99.99,,,0.00,weatherlink.com 1.10,2013-04-08 03:26:00,
2013-04-07 23:56:00,46.2,42.0,30.03,North,-999,-999.0,-999.0,84,-99.99,,,0.00,weatherlink.com 1.10,2013-04-08 03:56:00,